Faith, SD

2:02 AM MDT on August 27, 2016 (GMT -0600)
Faith

Weather History for KD07 - November, 2012

Change the Weather History Date:

Friday, November 9, 2012

  Actual Average Record
Temperature  
Mean Temperature 31 °F 36 °F  
Max Temperature 33 °F 47 °F 68 °F (2001)
Min Temperature 29 °F 25 °F 5 °F (2000)
Degree Days  
Heating Degree Days 34 29  
Month to date heating degree days 208 242  
Since 1 July heating degree days 942 1041  
Cooling Degree Days 0 0  
Month to date cooling degree days 0 0  
Year to date cooling degree days 971 635  
Moisture  
Dew Point 30 °F    
Average Humidity 91    
Maximum Humidity 100    
Minimum Humidity 82    
Precipitation  
Precipitation 0.03 in 0.04 in 0.15 in (1998)
Month to date precipitation 0.10 0.34  
Year to date precipitation 12.42 17.07  
Sea Level Pressure  
Sea Level Pressure 29.91 in    
Wind  
Wind Speed 15 mph (East)    
Max Wind Speed 23 mph    
Max Gust Speed 31 mph    
T = Trace of Precipitation, MM = Missing Value Source: NWS Daily Summary

Daily Weather History Graph

Daily Weather History Graph

Search for Another Location

Airport or City:

Trip Planner

Search our weather history database for the weather conditions in past years. The results will help you decide how hot, cold, wet, or windy it might be!

Date:

Astronomy

Nov. 09, 2012 Rise Set
Actual Time 6:38 AM MST 4:24 PM MST
Civil Twilight 6:07 AM MST 4:56 PM MST
Nautical Twilight 5:31 AM MST 5:31 PM MST
Astronomical Twilight 4:57 AM MST 6:05 PM MST
Moon 1:27 AM MST (11/9) 1:49 PM MST (11/9)
Length of Visible Light 10h 49m
Length of Day
9h 46m
Waning Crescent, 22% of the Moon is Illuminated
Nov 9
Waning Crescent
Nov 13
New
Nov 20
First Quarter
Nov 28
Full
Dec 6
Last Quarter

Hourly Weather History & Observations

Time (MST) Temp. Windchill Dew Point Humidity Pressure Visibility Wind Dir Wind Speed Gust Speed Precip Events Conditions
12:56 AM 32.0 °F 20.8 °F 28.9 °F 88% 30.03 in - East 17.3 mph - N/A   Unknown
1:56 AM 32.0 °F 20.1 °F 28.9 °F 88% 30.03 in - East 19.6 mph - N/A   Unknown
2:56 AM 30.0 °F 17.9 °F 28.9 °F 96% 30.01 in - East 18.4 mph - N/A   Unknown
3:56 AM 28.9 °F 16.5 °F 28.9 °F 100% 30.01 in - East 18.4 mph - N/A   Unknown
4:56 AM 28.9 °F 17.3 °F 28.9 °F 100% 30.01 in - East 16.1 mph - N/A   Unknown
5:56 AM 28.9 °F 17.3 °F 28.9 °F 100% 30.00 in - East 16.1 mph 21.9 mph N/A   Unknown
6:56 AM 28.9 °F 18.2 °F 28.0 °F 96% 29.99 in - East 13.8 mph - N/A   Unknown
7:56 AM 28.9 °F 17.3 °F 28.0 °F 96% 29.98 in - ESE 16.1 mph 24.2 mph N/A   Unknown
8:56 AM 28.9 °F 15.4 °F 28.9 °F 100% 29.96 in - ESE 21.9 mph 28.8 mph N/A   Unknown
9:56 AM 30.0 °F 18.7 °F 30.0 °F 100% 29.96 in - ESE 16.1 mph 23.0 mph N/A   Unknown
10:56 AM 30.9 °F 19.8 °F 30.0 °F 96% 29.95 in - ESE 16.1 mph 23.0 mph N/A   Unknown
11:56 AM 30.9 °F 20.7 °F 30.9 °F 100% 29.91 in - ESE 13.8 mph 20.7 mph N/A   Unknown
12:56 PM 32.0 °F 21.6 °F 32.0 °F 100% 29.88 in - ESE 15.0 mph 23.0 mph N/A   Unknown
1:56 PM 32.0 °F 21.6 °F 32.0 °F 100% 29.85 in - East 15.0 mph 20.7 mph N/A   Unknown
2:56 PM 32.0 °F 21.6 °F 32.0 °F 100% 29.86 in - East 15.0 mph 23.0 mph N/A   Unknown
3:56 PM 32.0 °F 20.8 °F 32.0 °F 100% 29.85 in - East 17.3 mph 23.0 mph N/A   Unknown
4:56 PM 32.0 °F 21.6 °F 32.0 °F 100% 29.84 in - East 15.0 mph - N/A   Unknown
5:56 PM 32.0 °F 22.5 °F 32.0 °F 100% 29.86 in - East 12.7 mph - N/A   Unknown
6:56 PM 30.9 °F 22.2 °F 30.9 °F 100% 29.86 in - East 10.4 mph - N/A   Unknown
7:56 PM 30.9 °F 20.7 °F 30.9 °F 100% 29.83 in - ENE 13.8 mph - 0.01 in   Unknown
8:56 PM 30.9 °F 22.8 °F 30.9 °F 100% 29.82 in - ENE 9.2 mph - N/A   Unknown
9:56 PM 30.9 °F 21.2 °F 30.9 °F 100% 29.79 in - ENE 12.7 mph - 0.01 in   Unknown
10:56 PM 30.9 °F 22.8 °F 30.9 °F 100% 29.79 in - NE 9.2 mph - N/A   Unknown
11:56 PM 30.9 °F 21.2 °F 30.9 °F 100% 29.75 in - NE 12.7 mph - 0.01 in   Unknown